EN

Hourly Weather Kzyl-Mesha

Today, 28 July, Wednesday

Time Temperature Precipitation Wind Pressure Humidity
00:00 +12°C° 0 mm 2 mps 752 mmHg 74%
01:00 +10°C° 0 mm 2 mps 752 mmHg 76%
02:00 +10°C° 0 mm 2 mps 752 mmHg 78%
03:00 +10°C° 0 mm 2 mps 752 mmHg 80%
04:00 +12°C° 0 mm 2 mps 752 mmHg 75%
05:00 +13°C° 0 mm 2 mps 752 mmHg 71%
06:00 +14°C° 0 mm 2 mps 753 mmHg 67%
07:00 +15°C° 0 mm 2 mps 753 mmHg 60%
08:00 +17°C° 0 mm 2 mps 753 mmHg 53%
09:00 +19°C° 0 mm 2 mps 753 mmHg 46%
10:00 +20°C° 0 mm 3 mps 752 mmHg 44%
11:00 +20°C° 0 mm 3 mps 752 mmHg 42%
12:00 +21°C° 0 mm 3 mps 752 mmHg 40%
13:00 +22°C° 0 mm 3 mps 752 mmHg 39%
14:00 +22°C° 0 mm 3 mps 751 mmHg 38%
15:00 +22°C° 0 mm 3 mps 751 mmHg 38%
16:00 +22°C° 0 mm 3 mps 751 mmHg 43%
17:00 +21°C° 0 mm 3 mps 751 mmHg 48%
18:00 +21°C° 0 mm 2 mps 751 mmHg 53%
19:00 +19°C° 0 mm 2 mps 751 mmHg 55%
20:00 +18°C° 0 mm 1 mps 751 mmHg 58%
21:00 +15°C° 0 mm 1 mps 751 mmHg 60%
22:00 +15°C° 0 mm 1 mps 751 mmHg 61%
23:00 +14°C° 0 mm 2 mps 750 mmHg 62%

Tomorrow, 29 July, Thursday

Time Temperature Precipitation Wind Pressure Humidity
00:00 +14°C° 0 mm 2 mps 750 mmHg 63%
01:00 +12°C° 0 mm 3 mps 750 mmHg 64%
02:00 +12°C° 0 mm 3 mps 750 mmHg 66%
03:00 +12°C° 0 mm 3 mps 750 mmHg 68%
04:00 +13°C° 0 mm 3 mps 750 mmHg 67%
05:00 +14°C° 0 mm 3 mps 750 mmHg 66%
06:00 +16°C° 0 mm 3 mps 749 mmHg 65%
07:00 +18°C° 0 mm 3 mps 749 mmHg 60%
08:00 +20°C° 0 mm 4 mps 749 mmHg 54%
09:00 +22°C° 0 mm 4 mps 749 mmHg 49%
10:00 +23°C° 0 mm 5 mps 748 mmHg 48%
11:00 +25°C° 0 mm 5 mps 748 mmHg 47%
12:00 +25°C° 0 mm 5 mps 748 mmHg 46%
13:00 +23°C° 0 mm 5 mps 748 mmHg 50%
14:00 +22°C° 0 mm 5 mps 747 mmHg 55%
15:00 +21°C° 0 mm 4 mps 747 mmHg 59%
16:00 +20°C° 0 mm 4 mps 747 mmHg 68%
17:00 +19°C° 0 mm 4 mps 746 mmHg 77%
18:00 +18°C° 0 mm 4 mps 746 mmHg 86%
19:00 +17°C° 0 mm 4 mps 745 mmHg 89%
20:00 +17°C° 0 mm 4 mps 745 mmHg 92%
21:00 +17°C° 0 mm 3 mps 745 mmHg 95%
22:00 +16°C° 0 mm 3 mps 744 mmHg 96%
23:00 +16°C° 0 mm 3 mps 744 mmHg 97%

Day after tomorrow, 30 July, Friday

Time Temperature Precipitation Wind Pressure Humidity
00:00 +14°C° 0 mm 3 mps 743 mmHg 98%
01:00 +16°C° 0.1 mm 2 mps 743 mmHg 98%
02:00 +16°C° 0.1 mm 2 mps 743 mmHg 98%
03:00 +17°C° 0.1 mm 2 mps 743 mmHg 98%
04:00 +17°C° 0 mm 2 mps 743 mmHg 96%
05:00 +18°C° 0 mm 2 mps 743 mmHg 95%
06:00 +18°C° 0 mm 3 mps 743 mmHg 94%
07:00 +19°C° 0 mm 3 mps 743 mmHg 89%
08:00 +20°C° 0 mm 4 mps 743 mmHg 84%
09:00 +21°C° 0 mm 4 mps 743 mmHg 80%
10:00 +23°C° 0 mm 5 mps 744 mmHg 71%
11:00 +26°C° 0 mm 5 mps 744 mmHg 63%
12:00 +27°C° 0 mm 5 mps 744 mmHg 55%
13:00 +27°C° 0 mm 5 mps 744 mmHg 56%
14:00 +27°C° 0 mm 5 mps 744 mmHg 58%
15:00 +26°C° 0 mm 5 mps 744 mmHg 59%
16:00 +26°C° 0 mm 4 mps 744 mmHg 62%
17:00 +26°C° 0 mm 4 mps 744 mmHg 64%
18:00 +25°C° 0 mm 3 mps 744 mmHg 67%
19:00 +24°C° 0 mm 3 mps 744 mmHg 70%
20:00 +22°C° 0 mm 3 mps 744 mmHg 74%
21:00 +21°C° 0 mm 2 mps 744 mmHg 77%
22:00 +21°C° 1 mm 3 mps 744 mmHg 83%
23:00 +20°C° 1 mm 3 mps 745 mmHg 89%

31 July, Saturday

Time Temperature Precipitation Wind Pressure Humidity
00:00 +19°C° 1 mm 4 mps 745 mmHg 95%
01:00 +19°C° 1.3 mm 3 mps 745 mmHg 96%
02:00 +19°C° 1.3 mm 2 mps 744 mmHg 96%
03:00 +19°C° 1.3 mm 2 mps 744 mmHg 97%
04:00 +19°C° 0.2 mm 2 mps 744 mmHg 96%
05:00 +19°C° 0.2 mm 2 mps 744 mmHg 96%
06:00 +20°C° 0.2 mm 3 mps 744 mmHg 95%
07:00 +20°C° 0 mm 3 mps 744 mmHg 91%
08:00 +21°C° 0 mm 4 mps 744 mmHg 87%
09:00 +22°C° 0 mm 4 mps 744 mmHg 83%
10:00 +23°C° 0.1 mm 4 mps 744 mmHg 78%
11:00 +25°C° 0.1 mm 5 mps 744 mmHg 72%
12:00 +26°C° 0.1 mm 5 mps 744 mmHg 67%
13:00 +27°C° 0.1 mm 6 mps 744 mmHg 64%
14:00 +28°C° 0.1 mm 6 mps 744 mmHg 61%
15:00 +28°C° 0.1 mm 6 mps 744 mmHg 57%
16:00 +27°C° 0 mm 6 mps 744 mmHg 59%
17:00 +26°C° 0 mm 5 mps 744 mmHg 61%
18:00 +25°C° 0 mm 4 mps 744 mmHg 63%
19:00 +25°C° 0 mm 4 mps 744 mmHg 64%
20:00 +23°C° 0 mm 4 mps 745 mmHg 66%
21:00 +22°C° 0 mm 3 mps 745 mmHg 68%
22:00 +21°C° 0 mm 3 mps 745 mmHg 69%
23:00 +19°C° 0 mm 3 mps 745 mmHg 71%

1 August, Sunday

Time Temperature Precipitation Wind Pressure Humidity
00:00 +18°C° 0 mm 3 mps 745 mmHg 72%
01:00 +18°C° 0 mm 3 mps 746 mmHg 72%
02:00 +18°C° 0 mm 3 mps 746 mmHg 72%
03:00 +17°C° 0 mm 3 mps 746 mmHg 71%
04:00 +18°C° 0 mm 3 mps 746 mmHg 71%
05:00 +19°C° 0 mm 3 mps 747 mmHg 70%
06:00 +19°C° 0 mm 3 mps 747 mmHg 70%
07:00 +21°C° 0 mm 4 mps 747 mmHg 64%
08:00 +23°C° 0 mm 5 mps 747 mmHg 58%
09:00 +24°C° 0 mm 6 mps 748 mmHg 52%
10:00 +26°C° 0 mm 6 mps 748 mmHg 49%
11:00 +27°C° 0 mm 6 mps 748 mmHg 47%
12:00 +28°C° 0 mm 6 mps 748 mmHg 44%
13:00 +28°C° 0 mm 6 mps 748 mmHg 44%
14:00 +28°C° 0 mm 6 mps 748 mmHg 44%
15:00 +29°C° 0 mm 5 mps 748 mmHg 44%
16:00 +28°C° 0 mm 4 mps 748 mmHg 49%
17:00 +27°C° 0 mm 4 mps 748 mmHg 54%
18:00 +26°C° 0 mm 3 mps 748 mmHg 59%
19:00 +25°C° 0 mm 3 mps 748 mmHg 62%
20:00 +22°C° 0 mm 3 mps 748 mmHg 64%
21:00 +21°C° 0 mm 3 mps 748 mmHg 66%
22:00 +21°C° 0 mm 3 mps 748 mmHg 67%
23:00 +20°C° 0 mm 3 mps 748 mmHg 67%

2 August, Monday

Time Temperature Precipitation Wind Pressure Humidity
00:00 +20°C° 0 mm 3 mps 748 mmHg 68%
01:00 +20°C° 0 mm 3 mps 748 mmHg 68%
02:00 +19°C° 0 mm 3 mps 748 mmHg 69%
03:00 +19°C° 0 mm 3 mps 748 mmHg 70%
04:00 +20°C° 0 mm 4 mps 748 mmHg 67%
05:00 +20°C° 0 mm 4 mps 748 mmHg 64%
06:00 +21°C° 0 mm 4 mps 748 mmHg 61%
07:00 +22°C° 0.1 mm 4 mps 748 mmHg 64%
08:00 +22°C° 0.1 mm 5 mps 749 mmHg 67%
09:00 +23°C° 0.1 mm 5 mps 749 mmHg 70%
10:00 +23°C° 0.1 mm 5 mps 749 mmHg 68%
11:00 +25°C° 0.1 mm 5 mps 749 mmHg 67%
12:00 +26°C° 0.1 mm 5 mps 749 mmHg 65%
13:00 +27°C° 0 mm 5 mps 749 mmHg 61%
14:00 +28°C° 0 mm 5 mps 748 mmHg 57%
15:00 +29°C° 0 mm 5 mps 748 mmHg 53%
16:00 +29°C° 0 mm 4 mps 748 mmHg 57%
17:00 +28°C° 0 mm 3 mps 748 mmHg 60%
18:00 +28°C° 0 mm 2 mps 748 mmHg 63%
19:00 +27°C° 0 mm 2 mps 748 mmHg 65%
20:00 +25°C° 0 mm 2 mps 748 mmHg 67%
21:00 +24°C° 0 mm 2 mps 748 mmHg 69%
22:00 +23°C° 0 mm 2 mps 748 mmHg 72%
23:00 +23°C° 0 mm 2 mps 748 mmHg 74%
Show more